Temp
71 73 74 75 75 75 74 74 74 74 75 75 75 75 74 75 74 74 75 75 76 77 77 77 76 76 75 75 74 73 73 73 73 74 75 76 78 77 76 76 76 77 75
72 74 73 74 75 75 75 74 74 74 75 75 75 74 74 74 74 74 74 75 75 76 77 76 75 75 74 73 73 73 73 72 72 72 74 75 76 77 76 75 75 74 75
73 75 75 73 74 75 75 75 75 75 75 75 75 74 74 74 74 74 74 74 75 75 76 76 75 74 73 72 72 72 72 72 71 72 73 70 72 76 74 74 74 74 74
75 74 74 73 74 74 74 74 74 75 75 75 75 75 74 74 74 74 73 73 74 74 74 74 74 73 72 71 71 71 71 71 70 71 68 72 76 72 71 69 74 75 75
71 72 73 72 72 73 73 73 73 74 74 74 74 74 74 74 74 73 72 72 73 74 74 73 72 71 70 69 69 69 69 69 69 69 65 69 69 72 71 69 74 74 74
67 68 70 70 72 73 73 73 73 72 72 72 73 74 74 73 73 72 72 72 72 72 72 72 71 70 69 68 69 69 68 68 68 64 66 70 70 73 72 72 74 73 73
66 68 70 70 71 72 73 73 72 72 72 72 72 72 73 72 72 71 71 71 71 71 71 70 70 69 68 68 68 68 67 67 66 63 65 66 68 75 74 74 73 72 72
68 68 70 71 71 71 72 71 71 71 71 71 71 71 72 71 71 71 70 70 70 70 69 69 69 68 68 68 68 67 66 67 67 62 67 66 72 74 74 74 72 72 72
71 67 67 69 71 70 69 69 69 70 70 70 70 70 70 70 70 70 70 70 70 69 69 68 68 68 68 68 67 66 66 66 63 63 70 65 72 74 74 73 72 71 71
72 71 67 67 68 66 66 68 69 69 69 69 70 69 69 69 69 70 69 70 70 69 69 69 68 68 67 67 66 66 65 66 63 63 63 64 71 73 73 72 71 71 71
75 73 70 69 68 67 66 69 69 69 69 69 69 69 67 66 67 68 67 68 69 69 68 68 68 67 66 66 66 66 66 61 62 63 62 67 71 72 72 71 71 70 70
72 72 73 72 69 69 76 68 66 69 67 67 68 67 66 65 65 69 67 68 69 68 68 67 67 67 66 62 62 65 61 62 63 63 62 67 70 71 71 70 70 70 70
74 74 72 72 72 72 71 66 66 66 66 66 68 68 68 67 65 64 62 63 61 65 62 65 63 62 62 61 63 62 63 63 61 61 64 66 69 70 70 70 70 70 70
72 74 73 72 72 70 69 68 68 68 67 67 67 68 65 63 63 63 63 63 62 61 60 61 60 63 62 64 64 63 63 62 61 60 59 65 67 69 70 70 70 70 70
74 74 74 72 70 72 70 67 68 66 67 67 66 67 65 64 63 63 62 63 62 62 62 61 61 63 63 64 64 63 63 63 62 61 58 63 65 67 69 70 71 71 70
75 74 72 67 69 71 69 69 67 66 67 66 65 66 67 64 62 62 61 62 62 62 61 61 61 60 60 61 62 63 63 62 62 62 60 58 63 65 67 69 70 70 70
72 72 66 65 63 68 67 69 67 66 68 65 65 66 66 66 64 63 61 60 61 61 61 61 60 60 59 62 60 61 61 61 61 62 62 59 58 62 64 66 67 68 69
72 73 71 71 63 64 64 67 67 66 65 65 64 64 65 66 64 61 60 59 60 60 60 59 58 58 57 57 57 58 59 60 61 61 63 61 59 61 61 63 65 66 67
71 70 68 67 65 64 64 66 64 66 66 65 64 63 65 64 63 60 59 58 58 58 57 57 57 55 55 57 61 62 57 57 58 64 60 61 59 59 58 61 63 63 65
68 68 68 66 63 64 64 65 63 63 63 63 62 63 64 62 62 59 59 57 57 56 55 54 53 55 53 54 61 61 58 57 57 57 59 62 60 60 59 58 59 60 61
67 68 65 63 62 63 62 60 60 59 61 62 63 64 63 62 61 59 57 56 55 54 53 53 52 51 54 53 54 55 52 54 56 58 58 57 58 61 61 59 58 58 59
62 63 64 64 63 63 61 60 60 58 60 60 60 61 61 59 59 60 55 54 54 52 52 51 50 50 49 50 47 49 46 51 52 55 54 56 56 56 59 62 60 58 57
60 61 64 63 63 61 61 60 59 59 58 58 58 59 58 57 58 56 54 52 51 51 50 49 49 48 45 47 47 44 41 41 44 52 53 54 50 52 53 54 57 59 57
58 60 62 63 63 62 61 58 57 54 54 55 54 54 55 55 55 56 54 52 50 50 48 48 50 46 45 42 44 48 44 45 41 40 46 49 47 48 47 49 51 53 54
60 60 61 63 62 61 60 59 55 54 54 54 52 52 51 52 53 54 54 50 48 48 46 45 45 47 47 45 43 43 43 40 38 35 35 39 43 44 44 45 46 48 52
60 59 59 61 61 60 61 58 54 53 53 50 49 48 48 49 49 50 50 48 47 45 45 45 46 45 44 44 44 43 41 39 39 38 36 36 36 39 42 42 44 46 49
MSLP
1017.62 1017.57 1017.48 1017.58 1017.79 1018.05 1018.35 1018.56 1018.76 1018.96 1019.23 1019.47 1019.59 1019.72 1019.79 1020.08 1020.05 1019.96 1020.10 1020.05 1020.01 1019.93 1019.99 1019.91 1019.88 1020.11 1020.11 1020.25 1019.91 1019.88 1019.75 1019.65 1019.49 1019.40 1019.93 1019.85 1019.73 1019.52 1019.31 1019.06 1019.32 1019.05 1019.19
1017.57 1017.79 1017.59 1017.74 1018.09 1018.35 1018.63 1018.88 1019.05 1019.24 1019.35 1019.57 1019.73 1019.88 1020.05 1020.18 1020.15 1020.20 1020.24 1020.19 1020.07 1020.04 1019.96 1020.13 1020.21 1020.18 1020.35 1020.31 1020.22 1020.12 1019.91 1019.78 1019.69 1019.53 1019.47 1019.53 1019.77 1019.75 1019.99 1019.91 1019.59 1019.61 1019.55
1017.62 1017.74 1017.78 1018.04 1018.38 1018.65 1018.90 1019.12 1019.16 1019.36 1019.65 1019.94 1020.06 1020.16 1020.25 1020.34 1020.33 1020.43 1020.47 1020.68 1020.32 1020.27 1020.50 1020.39 1020.32 1020.44 1020.49 1020.57 1020.51 1020.18 1020.04 1019.98 1019.87 1019.74 1019.63 1019.53 1019.23 1019.78 1020.69 1020.69 1020.14 1019.80 1019.60
1017.49 1017.74 1018.06 1018.32 1018.64 1018.87 1019.05 1019.29 1019.38 1019.57 1019.97 1020.11 1020.16 1020.16 1020.43 1020.66 1020.65 1020.77 1020.85 1020.78 1020.62 1020.54 1020.67 1020.47 1020.53 1020.47 1020.60 1020.56 1020.39 1020.30 1020.22 1020.00 1019.75 1019.60 1019.69 1019.52 1019.30 1020.06 1020.28 1020.68 1020.31 1019.94 1019.77
1017.82 1018.05 1018.43 1018.61 1018.97 1019.21 1019.38 1019.51 1019.68 1019.98 1020.07 1020.22 1020.45 1020.49 1020.77 1020.81 1020.91 1020.91 1021.01 1020.93 1020.92 1020.95 1020.84 1020.77 1020.81 1020.68 1020.69 1020.61 1020.51 1020.45 1020.23 1019.93 1019.63 1019.57 1019.69 1019.35 1019.50 1019.81 1019.56 1019.49 1019.99 1019.67 1019.92
1018.27 1018.53 1018.86 1018.77 1019.21 1019.22 1019.50 1019.65 1019.95 1020.16 1020.34 1020.43 1020.65 1020.67 1020.89 1021.08 1021.24 1021.40 1021.39 1021.28 1021.13 1021.34 1021.12 1021.10 1021.01 1020.86 1020.78 1020.69 1020.59 1020.52 1020.36 1020.07 1019.71 1019.57 1019.60 1019.47 1019.48 1019.71 1019.64 1019.88 1019.69 1019.45 1019.28
1018.60 1018.74 1019.05 1019.13 1019.19 1019.45 1019.62 1019.86 1019.97 1020.13 1020.31 1020.53 1020.75 1020.94 1021.05 1021.23 1021.34 1021.46 1021.65 1021.71 1021.63 1021.64 1021.54 1021.39 1021.15 1020.99 1020.80 1020.64 1020.46 1020.34 1020.21 1020.02 1019.83 1019.80 1019.47 1019.42 1019.33 1019.11 1019.27 1019.30 1019.81 1019.51 1019.63
1018.53 1018.95 1019.01 1019.29 1019.32 1019.47 1019.78 1019.90 1020.09 1020.23 1020.49 1020.58 1020.81 1020.96 1021.13 1021.35 1021.48 1021.65 1021.56 1021.62 1021.63 1021.65 1021.55 1021.44 1021.06 1020.92 1020.81 1020.63 1020.32 1020.14 1019.95 1019.81 1019.70 1019.86 1019.71 1019.57 1019.06 1019.00 1019.07 1018.94 1019.24 1019.54 1019.35
1018.38 1018.77 1019.10 1019.22 1019.40 1019.55 1019.86 1020.00 1020.32 1020.17 1020.33 1020.45 1020.72 1021.08 1021.12 1021.53 1021.61 1021.45 1021.50 1021.35 1021.42 1021.45 1021.32 1021.40 1021.13 1020.95 1020.72 1020.59 1020.36 1020.09 1019.82 1019.81 1019.71 1019.89 1019.49 1019.72 1019.30 1018.89 1019.06 1019.10 1019.28 1019.50 1019.66
1018.04 1018.41 1019.04 1019.27 1019.65 1019.99 1020.00 1020.04 1020.12 1020.12 1020.44 1020.41 1020.57 1020.79 1020.97 1021.33 1021.40 1021.19 1021.28 1021.29 1021.32 1021.14 1021.26 1021.20 1020.93 1020.88 1020.79 1020.67 1020.45 1020.18 1019.91 1019.91 1019.77 1019.57 1019.63 1019.63 1019.25 1018.93 1018.92 1018.89 1018.92 1018.88 1018.84
1018.04 1018.31 1018.83 1019.24 1019.71 1019.87 1019.95 1019.98 1020.06 1020.01 1020.53 1020.37 1020.51 1020.57 1020.69 1021.10 1021.18 1021.14 1021.14 1021.24 1021.16 1021.09 1021.20 1021.02 1020.75 1020.65 1020.68 1020.52 1020.25 1019.99 1019.86 1019.87 1019.72 1019.64 1019.56 1019.31 1019.18 1018.90 1018.77 1018.77 1018.80 1018.72 1018.68
1017.88 1018.23 1018.42 1018.76 1019.39 1019.35 1019.31 1019.80 1020.11 1020.24 1020.40 1020.45 1020.45 1020.41 1020.64 1020.66 1020.82 1021.01 1021.02 1021.08 1020.90 1021.03 1021.05 1020.75 1020.62 1020.52 1020.52 1020.36 1020.21 1019.85 1019.81 1019.69 1019.46 1019.41 1019.30 1019.11 1019.06 1018.71 1018.68 1018.70 1018.74 1018.73 1018.61
1017.28 1017.85 1018.12 1018.07 1018.29 1018.44 1018.77 1019.40 1019.79 1020.20 1020.48 1020.86 1020.36 1020.26 1020.29 1020.32 1020.56 1020.85 1021.03 1021.04 1021.03 1020.90 1020.90 1020.58 1020.59 1020.49 1020.32 1020.15 1019.92 1019.79 1019.62 1019.44 1019.36 1019.27 1019.10 1019.21 1019.00 1018.68 1018.54 1018.46 1018.50 1018.62 1018.70
1017.14 1017.41 1017.76 1017.47 1017.93 1018.74 1018.87 1019.20 1019.52 1019.55 1020.10 1020.40 1020.26 1020.19 1020.38 1020.65 1020.58 1020.70 1020.81 1020.63 1020.70 1020.63 1020.73 1020.58 1020.48 1020.16 1020.03 1019.75 1019.69 1019.62 1019.40 1019.22 1019.14 1019.19 1019.17 1018.97 1018.81 1018.63 1018.45 1018.32 1018.28 1018.32 1018.31
1016.65 1016.94 1017.13 1017.23 1018.05 1018.54 1019.19 1019.52 1019.54 1019.67 1019.65 1019.97 1020.06 1020.05 1020.13 1020.49 1020.56 1020.58 1020.65 1020.60 1020.56 1020.44 1020.41 1020.29 1020.19 1020.01 1019.83 1019.55 1019.38 1019.28 1019.10 1018.90 1018.81 1018.75 1018.81 1018.66 1018.56 1018.38 1018.29 1018.18 1018.21 1018.17 1018.15
1015.97 1016.50 1017.61 1018.56 1018.67 1018.89 1018.66 1019.11 1019.56 1019.69 1019.55 1019.74 1019.96 1019.93 1019.98 1020.26 1020.53 1020.67 1020.70 1020.72 1020.61 1020.44 1020.36 1020.28 1020.14 1019.93 1019.75 1019.49 1019.27 1018.95 1018.70 1018.54 1018.31 1018.23 1018.27 1018.29 1018.33 1018.19 1018.12 1018.02 1017.96 1017.87 1017.87
1016.11 1016.71 1018.72 1018.15 1019.90 1018.83 1019.71 1018.88 1019.50 1019.72 1019.54 1019.90 1019.79 1019.69 1019.74 1019.89 1020.25 1020.42 1020.77 1020.94 1020.83 1020.58 1020.36 1020.13 1019.91 1019.76 1019.63 1019.14 1019.08 1018.74 1018.47 1018.14 1018.00 1017.77 1017.54 1017.68 1017.73 1017.76 1017.71 1017.74 1017.78 1017.68 1017.71
1016.20 1016.54 1017.36 1018.43 1019.79 1020.06 1019.97 1019.36 1019.35 1019.63 1019.73 1019.69 1019.90 1019.96 1019.99 1020.14 1020.38 1020.75 1020.86 1020.94 1020.87 1020.72 1020.54 1020.37 1020.31 1020.03 1019.76 1019.47 1019.13 1018.75 1018.40 1017.94 1017.63 1017.42 1017.07 1016.93 1017.14 1017.19 1017.20 1017.21 1017.30 1017.34 1017.36
1016.33 1016.76 1018.06 1018.89 1019.96 1020.25 1019.81 1019.24 1019.54 1019.51 1019.52 1019.73 1019.94 1020.14 1020.22 1020.30 1020.43 1020.61 1020.84 1020.93 1020.85 1020.95 1020.93 1020.90 1020.66 1020.47 1020.22 1019.75 1019.21 1018.63 1018.21 1017.89 1017.49 1017.02 1017.00 1016.82 1016.59 1016.57 1016.63 1016.59 1016.72 1016.89 1016.98
1017.10 1017.55 1018.27 1019.42 1019.93 1019.75 1019.36 1019.37 1019.91 1020.17 1020.20 1020.21 1020.29 1020.31 1020.21 1020.31 1020.40 1020.64 1020.67 1020.85 1020.79 1020.92 1021.02 1020.93 1020.80 1020.52 1020.31 1019.92 1019.26 1018.62 1018.15 1017.64 1017.14 1016.92 1016.55 1016.14 1016.06 1015.99 1015.86 1015.86 1016.02 1016.21 1016.35
1018.02 1018.11 1018.58 1019.09 1019.49 1019.68 1019.84 1020.25 1020.49 1020.80 1020.63 1020.44 1020.70 1020.59 1020.67 1020.82 1020.71 1020.78 1021.13 1021.06 1020.97 1021.10 1021.26 1021.20 1021.02 1020.84 1020.59 1020.09 1019.61 1018.70 1018.07 1017.59 1017.13 1016.71 1016.20 1015.97 1015.71 1015.35 1015.05 1015.01 1015.15 1015.41 1015.69
1019.03 1019.24 1019.45 1019.87 1020.17 1020.42 1020.47 1020.65 1020.81 1020.95 1020.90 1021.13 1021.10 1021.18 1021.31 1021.35 1021.55 1021.37 1021.46 1021.37 1021.24 1021.42 1021.38 1021.28 1021.08 1020.90 1020.65 1020.50 1020.49 1019.66 1018.36 1017.56 1017.14 1016.81 1016.49 1016.38 1016.16 1015.67 1015.41 1015.15 1015.39 1015.12 1015.04
1020.03 1020.24 1020.23 1020.51 1020.71 1020.87 1021.00 1020.99 1021.00 1021.09 1021.29 1021.43 1021.49 1021.66 1021.92 1021.89 1021.90 1021.81 1021.67 1021.73 1021.72 1021.61 1021.58 1021.30 1021.02 1020.99 1021.00 1020.98 1021.12 1021.04 1020.21 1019.36 1019.08 1017.46 1017.10 1016.74 1016.78 1016.37 1016.24 1015.76 1014.94 1014.45 1014.46
1020.84 1020.71 1020.79 1020.96 1020.91 1021.03 1021.15 1021.41 1021.82 1022.26 1022.43 1022.45 1022.47 1022.61 1022.59 1022.37 1022.19 1021.96 1022.02 1021.87 1021.71 1021.61 1021.59 1021.36 1021.18 1021.22 1021.13 1021.31 1021.18 1021.18 1021.55 1021.41 1020.49 1018.62 1017.90 1017.78 1017.70 1017.50 1017.30 1016.89 1016.37 1015.58 1015.25
1021.16 1021.21 1021.01 1021.17 1021.54 1021.43 1021.34 1021.57 1022.03 1022.50 1022.66 1022.77 1022.89 1022.99 1023.05 1022.88 1022.62 1022.48 1022.35 1022.34 1022.37 1022.30 1022.14 1021.97 1021.73 1021.67 1021.78 1021.94 1021.98 1021.81 1021.61 1021.14 1020.91 1020.92 1018.95 1018.57 1018.49 1018.32 1017.98 1017.75 1017.16 1016.53 1015.97
1021.04 1021.09 1021.28 1021.42 1021.64 1021.89 1022.02 1022.24 1022.51 1022.83 1023.10 1023.29 1023.39 1023.49 1023.41 1023.27 1023.21 1023.04 1022.90 1022.61 1022.47 1022.55 1022.47 1022.40 1022.30 1022.09 1021.96 1022.10 1022.17 1021.92 1021.84 1021.62 1021.27 1021.37 1020.50 1019.21 1019.04 1018.55 1018.26 1017.74 1017.38 1016.85 1016.46
Wind_Speed
6 5 12 15 15 15 15 15 15 16 16 17 16 15 14 13 13 13 13 12 12 12 13 12 12 12 11 12 12 11 10 9 9 10 7 7 6 3 6 2 9 7 7
11 7 14 15 15 15 15 15 16 16 16 16 15 14 13 12 13 13 13 12 12 12 12 11 10 11 10 10 11 11 12 11 10 10 11 11 7 4 7 7 7 6 10
13 10 13 15 15 16 16 15 16 16 16 15 14 13 13 13 13 13 13 12 13 13 11 11 12 11 11 10 9 9 10 11 11 11 11 5 4 9 16 5 5 5 6
14 11 12 15 15 15 15 15 15 15 14 13 13 13 13 12 13 13 12 12 11 10 10 10 9 9 9 9 9 10 11 12 11 11 5 5 4 18 13 17 4 5 7
13 11 11 14 14 15 14 14 14 13 12 12 12 14 12 12 12 11 11 10 11 10 10 10 9 10 9 8 8 8 9 11 12 10 6 3 7 13 12 5 13 2 2
10 9 11 14 13 15 14 14 14 13 12 12 12 12 12 12 12 11 11 10 11 9 9 8 8 8 7 7 8 8 9 10 11 6 5 3 8 10 12 12 5 4 3
9 8 9 12 13 14 15 15 13 12 11 11 11 10 11 11 11 10 10 9 9 8 8 7 7 7 7 8 9 8 8 8 5 6 4 2 5 7 8 4 1 2 4
12 8 9 12 14 14 13 12 12 11 11 10 9 9 9 8 9 9 9 7 6 5 4 4 4 5 6 8 9 11 11 11 6 5 2 1 8 7 6 4 3 2 3
12 9 7 8 11 13 13 12 11 11 11 10 9 9 7 7 7 8 8 7 6 4 3 1 4 7 7 8 10 12 13 12 7 3 2 2 4 7 5 6 3 1 2
11 10 8 7 7 6 7 11 11 11 10 9 10 10 9 9 8 8 9 7 7 7 4 4 5 8 8 9 10 13 14 13 7 4 2 3 6 6 5 5 2 1 3
8 9 7 9 7 7 6 8 10 12 11 10 9 10 6 4 6 7 8 8 8 7 6 7 8 8 8 9 11 12 12 4 6 1 2 3 2 3 3 1 1 3 4
7 9 9 10 10 8 7 6 6 6 5 5 5 6 5 5 6 6 6 9 8 7 7 10 11 10 6 4 4 6 3 5 4 3 2 5 4 1 0 2 5 6 7
10 7 9 8 7 7 6 4 3 3 3 3 7 4 3 3 3 3 3 2 3 7 4 5 5 4 5 4 5 3 4 4 3 3 1 5 5 3 2 3 7 9 9
8 12 9 9 8 5 4 4 5 5 4 3 3 5 4 2 3 3 1 1 2 2 5 4 3 3 4 4 5 6 6 4 3 2 4 9 8 6 4 4 7 10 11
10 12 13 9 7 6 5 3 3 4 4 4 5 5 4 3 3 1 1 2 3 3 2 2 3 4 5 6 5 5 6 6 6 3 3 11 11 8 7 6 8 10 11
10 13 8 9 6 4 5 6 3 3 3 4 4 5 6 4 2 1 2 3 4 3 4 3 4 5 5 5 6 7 7 6 7 6 4 5 12 10 9 10 9 10 11
6 15 5 15 6 3 6 5 3 4 3 4 4 6 6 5 3 2 3 4 4 4 6 5 5 4 5 5 6 6 6 7 6 7 7 5 6 13 12 11 12 12 11
13 15 13 10 8 6 6 4 4 3 1 2 1 1 4 5 6 5 3 4 5 5 5 4 5 5 5 5 5 5 5 5 7 8 8 6 6 6 11 14 14 14 14
10 9 11 12 12 6 4 3 4 5 1 0 3 4 5 6 6 5 4 4 5 4 5 5 5 3 5 7 9 8 5 5 6 6 6 8 8 8 6 13 16 14 14
15 13 11 9 6 3 2 5 5 5 4 4 4 4 5 4 6 5 4 5 5 4 5 4 4 5 4 6 10 10 8 6 6 6 8 7 8 9 9 9 10 10 16
11 14 11 12 9 8 5 4 3 2 1 2 4 6 8 6 7 7 4 5 5 5 4 5 4 5 8 5 9 8 4 6 7 7 5 6 6 9 10 10 8 7 9
9 10 10 10 9 8 4 3 4 3 4 4 4 7 7 8 8 7 6 6 6 4 6 5 4 5 2 3 4 7 6 5 4 6 5 5 6 4 5 7 7 7 7
10 8 8 8 8 6 7 4 5 5 4 5 5 6 8 9 8 8 8 6 6 5 4 4 5 5 3 4 7 3 5 4 10 4 9 7 9 7 10 9 5 9 10
7 8 8 5 6 6 7 5 4 2 2 2 2 4 7 10 10 9 8 8 7 5 6 5 4 2 3 2 2 5 1 2 5 9 3 8 9 8 10 8 9 8 3
6 5 4 7 5 2 4 5 3 3 3 3 4 7 7 7 8 10 10 7 8 5 5 6 6 8 7 5 5 4 4 4 1 3 9 5 6 6 5 6 6 7 7
5 4 5 6 7 8 6 8 8 7 5 5 5 4 3 3 4 6 6 5 4 5 5 5 4 5 4 3 4 5 3 3 4 3 5 9 6 3 7 4 4 4 5
Wind_Direction
82 113 103 96 89 84 81 85 84 87 86 87 91 92 88 80 74 68 62 57 51 48 43 47 51 40 33 17 14 9 356 354 0 1 15 355 343 75 73 59 145 115 107
112 113 101 93 92 93 91 90 90 93 96 98 97 95 88 78 71 66 61 58 56 49 46 44 43 42 38 31 19 3 351 348 353 350 354 341 316 159 88 64 107 134 136
114 107 99 98 96 94 96 98 99 100 100 99 94 87 80 75 71 65 59 51 48 43 36 35 30 30 24 20 14 7 350 341 344 337 343 311 339 83 34 4 115 137 133
107 103 101 101 102 103 100 98 98 98 98 94 91 86 79 73 67 63 63 56 56 54 46 38 33 30 22 15 8 356 346 339 333 328 330 304 252 73 51 338 317 137 150
99 103 105 100 97 98 97 95 93 93 91 90 86 83 81 79 78 79 75 71 62 55 50 40 34 32 24 19 14 2 352 342 333 329 326 323 97 115 136 195 280 314 108
100 98 105 106 108 104 102 97 95 93 89 87 86 90 86 84 82 80 75 68 62 53 52 48 41 35 22 8 0 352 347 336 328 325 339 355 122 143 177 211 205 171 171
111 110 112 113 108 106 105 105 102 102 103 98 95 93 90 92 93 88 78 69 62 50 41 31 23 12 358 344 338 331 324 323 336 341 331 110 101 130 115 92 242 145 194
126 134 124 121 116 114 110 108 110 107 103 105 107 104 106 113 106 104 105 103 90 71 46 9 360 339 326 322 322 320 315 321 336 350 47 338 109 110 115 109 100 159 198
137 132 143 134 129 125 126 125 125 125 125 129 133 125 138 124 133 140 145 141 140 150 180 289 317 301 302 311 312 312 311 321 320 354 133 120 106 111 104 101 106 123 222
146 148 152 127 129 136 145 139 142 136 144 157 155 155 169 161 170 179 170 167 182 199 199 235 265 282 297 309 309 304 307 323 321 342 132 189 143 127 126 114 89 327 307
150 148 147 149 147 151 154 160 159 160 168 181 178 182 184 173 193 195 200 187 210 216 219 247 256 267 290 294 286 276 298 300 303 306 199 198 211 130 121 130 234 275 278
155 137 149 143 163 161 172 161 166 181 182 189 197 178 206 198 192 194 200 198 226 243 242 250 258 268 278 269 284 287 266 283 301 335 228 218 225 151 283 293 294 287 281
171 142 139 141 139 150 135 171 170 180 197 203 185 133 98 70 84 95 136 225 250 252 246 254 259 253 250 255 254 240 254 290 308 336 273 240 247 224 225 289 292 287 283
148 148 158 149 129 103 64 107 157 139 145 147 138 123 95 88 75 74 111 233 219 212 239 236 241 270 258 291 275 271 264 259 271 269 242 227 238 241 238 249 269 278 280
150 166 170 146 121 128 109 102 88 100 129 141 132 123 117 104 110 129 318 320 312 328 303 309 305 299 285 282 274 257 254 246 248 253 228 234 232 242 262 261 263 267 267
167 163 121 79 88 59 131 131 147 129 171 109 150 150 133 133 152 76 346 331 319 332 321 313 293 292 281 278 272 263 250 237 237 232 222 228 228 224 236 253 259 264 264
108 120 88 115 257 89 275 144 138 189 140 140 176 161 158 147 154 70 13 352 327 330 327 331 322 318 307 295 278 273 261 259 245 235 229 207 217 219 218 229 242 245 249
122 142 164 122 167 219 241 174 123 104 99 43 125 338 64 58 54 59 33 358 335 333 327 327 315 313 309 305 302 292 283 278 259 249 241 222 206 211 219 217 224 227 230
96 74 85 124 171 177 213 104 127 139 140 89 53 89 89 78 74 68 36 349 358 354 343 337 338 340 324 321 313 305 289 281 276 275 249 253 224 207 205 217 216 220 224
80 82 83 103 103 107 49 58 41 40 27 42 76 85 80 95 70 53 19 3 1 356 343 341 337 326 311 300 306 298 290 279 276 271 271 247 230 225 209 202 207 215 211
65 72 61 56 41 44 36 64 50 54 338 359 70 31 52 37 30 26 12 1 355 360 324 323 323 339 328 323 318 309 288 288 284 278 272 262 259 241 220 205 200 203 210
61 68 65 62 52 39 32 18 48 10 3 41 30 38 47 36 26 31 25 12 12 3 352 340 329 314 279 318 301 306 303 312 302 302 323 335 317 309 290 270 248 221 203
50 60 70 77 70 60 55 38 19 22 22 12 16 30 31 37 25 23 20 16 3 3 333 308 303 323 317 16 38 12 339 330 336 308 329 326 4 6 4 340 271 205 202
51 49 49 85 106 88 81 74 77 103 31 357 33 32 28 22 15 14 8 3 352 334 328 328 49 79 64 32 353 27 123 311 318 310 348 332 354 3 0 357 354 335 29
92 79 39 34 44 89 114 114 101 52 42 43 43 42 23 7 11 11 354 350 9 28 27 25 24 39 33 28 18 343 320 330 14 311 310 332 329 341 349 343 347 350 331
144 130 84 66 41 47 39 54 74 67 56 52 45 40 10 6 5 351 3 7 31 40 31 31 24 48 52 25 349 324 311 308 312 290 300 315 313 301 325 303 342 357 352